[[{"header":{"parameterUnit":"m.s-1","parameterCategory":1,"la1":30.2991,"la2":30.254,"lo1":-89.0895,"lo2":-89.0444,"dy":0.0017,"dx":0.0017,"nx":28,"ny":28,"refTime":"2024-05-02T21:00:00:Z","depth":0,"parameterNumber":2,"parameterNumberName":"U-component_of_WINDS"},"data":[0,0,0,0,0,0,0,0,0,0,0,0,0,0,0,0,0,0,0,0,0,0,0,0,0,0,0,0,0,0,0,0,0,0,0,0,0,0,0,0,0,0,0,0,0,0,0,0,0,0,0,0,0,0,0,0,0,0,-1.7723,-1.7722,0,-1.765,-1.7649,-1.7648,-1.7576,-1.7575,-1.7574,-1.7573,-1.7496,-1.7495,-1.7494,0,0,0,0,0,0,0,0,0,0,0,0,0,-1.78,-1.7799,-1.7723,-1.7722,-1.7721,-1.765,-1.7649,-1.7648,-1.7576,-1.7575,-1.7574,-1.7573,-1.7497,-1.7495,-1.7494,0,0,0,0,0,0,0,0,0,0,0,0,0,-1.7751,-1.7799,-1.7723,-1.7677,-1.7672,-1.765,-1.7649,-1.7648,-1.7576,-1.7575,-1.7574,-1.7572,-1.7497,-1.7495,-1.7494,-1.7511,0,0,-1.7488,-1.7487,0,0,0,0,0,0,0,0,-1.7754,-1.7748,-1.7685,-1.768,-1.7675,-1.7621,-1.7648,-1.7602,-1.7577,-1.7613,-1.7573,-1.7572,-1.7539,-1.7533,-1.7523,-1.7507,-1.7504,-1.7488,-1.7487,-1.7486,-1.7486,0,0,0,0,0,0,0,-1.7757,-1.7751,-1.7694,-1.7684,-1.7678,-1.766,-1.7651,-1.7639,-1.7584,-1.7609,-1.7604,-1.7597,-1.7536,-1.7524,-1.752,-1.7503,-1.7488,-1.7486,-1.7485,-1.7485,-1.75,-1.7501,0,0,0,0,0,0,-1.7768,-1.7754,-1.7696,-1.7692,-1.7712,-1.7659,-1.765,-1.7639,-1.7584,-1.7575,-1.7598,-1.7593,-1.7528,-1.7522,-1.7517,-1.7535,-1.7486,-1.7484,-1.7483,-1.7498,-1.75,-1.7502,0,0,0,0,0,0,-1.777,-1.7763,-1.7699,-1.7721,-1.7712,-1.766,-1.7648,-1.7639,-1.7627,-1.7576,-1.7565,-1.7597,-1.7527,-1.752,-1.7513,-1.7531,-1.7484,-1.7482,-1.7496,-1.7499,-1.7501,-1.7569,0,0,0,0,0,0,-1.7772,-1.7764,-1.777,-1.7722,-1.7711,-1.7697,-1.7649,-1.7638,-1.7625,-1.7618,-1.7572,-1.7562,-1.7525,-1.7517,-1.7512,-1.7528,-1.7481,-1.7495,-1.7498,-1.75,-1.7565,-1.7574,-1.7581,0,0,0,0,0,-1.7775,-1.7792,-1.7771,-1.7764,-1.7717,-1.7698,-1.7692,-1.7649,-1.7627,-1.7632,-1.7599,-1.7564,-1.753,-1.7517,-1.751,-1.7526,-1.7493,-1.7497,-1.75,-1.7562,-1.7572,-1.758,0,0,0,0,0,0,-1.7842,-1.7784,-1.7761,-1.7762,-1.7736,-1.7686,-1.7691,-1.7661,-1.764,-1.7634,-1.7582,-1.7572,-1.7572,-1.7548,-1.7534,-1.7541,-1.7507,-1.7509,-1.7556,-1.7565,-1.7573,-1.7578,-1.7479,0,0,0,0,0,-1.7857,-1.7846,-1.7797,-1.7803,-1.7791,-1.7744,-1.7734,-1.7704,-1.7674,-1.7662,-1.7628,-1.76,-1.7583,-1.7573,-1.7555,-1.7562,-1.7551,-1.757,-1.7578,-1.7584,-1.7587,-1.759,-1.7598,-1.7512,-1.7512,-1.7512,0,0,-1.7887,-1.7855,-1.7851,-1.7815,-1.7791,-1.7782,-1.7735,-1.7726,-1.7718,-1.766,-1.7652,-1.7628,-1.7593,-1.7594,-1.7593,-1.7574,-1.7608,-1.7589,-1.7594,-1.7593,-1.7594,-1.7602,-1.761,-1.7515,-1.7514,-1.7514,0,0,-1.7938,-1.7912,-1.7915,-1.7892,-1.7857,-1.7826,-1.7828,-1.7783,-1.7764,-1.7756,-1.7713,-1.7703,-1.7675,-1.7653,-1.7637,-1.7683,-1.765,-1.7679,-1.7718,-1.7722,-1.7729,-1.7735,-1.7752,-1.7758,-1.7681,-1.7681,-1.7682,0,-1.7979,-1.7963,-1.792,-1.7914,-1.79,-1.785,-1.7852,-1.7832,-1.7793,-1.7784,-1.7765,-1.773,-1.7703,-1.7699,-1.771,-1.7699,-1.7699,-1.7683,-1.7732,-1.7737,-1.7742,-1.7757,-1.7763,-1.7685,-1.7685,-1.7684,-1.7684,0,-1.8017,-1.8007,-1.8013,-1.7978,-1.7965,-1.7964,-1.792,-1.7912,-1.7884,-1.7856,-1.7849,-1.7815,-1.779,-1.7787,-1.7759,-1.7779,-1.7769,-1.7742,-1.7706,-1.7755,-1.7768,-1.7773,-1.769,-1.7689,-1.7688,-1.7687,0,0,-1.8104,-1.8048,-1.8051,-1.8035,-1.7994,-1.7985,-1.7982,-1.7959,-1.7953,-1.7928,-1.7925,-1.7904,-1.7879,-1.7862,-1.7831,-1.7835,-1.7874,-1.7806,-1.7805,-1.782,-1.7895,-1.7916,-1.7924,-1.7853,-1.7854,-1.7854,-1.7898,0,-1.8148,-1.814,-1.8102,-1.8105,-1.8096,-1.8049,-1.8047,-1.8021,-1.7996,-1.7984,-1.7955,-1.7941,-1.7909,-1.7898,-1.79,-1.7869,-1.7888,-1.7865,-1.7848,-1.7848,-1.7858,-1.793,-1.7952,-1.7995,-1.7903,-1.7904,-1.7905,0,-1.8196,-1.8176,-1.8179,-1.8141,-1.8135,-1.8134,-1.811,-1.81,-1.8071,-1.8052,-1.8035,-1.8001,-1.7996,-1.7964,-1.7956,-1.7942,-1.7933,-1.7917,-1.7918,-1.7914,-1.7879,-1.7928,-1.8007,-1.8014,-1.7913,-1.7912,-1.7911,0,-1.826,-1.8234,-1.8233,-1.8221,-1.8175,-1.8176,-1.8157,-1.8127,-1.8116,-1.8095,-1.8088,-1.8067,-1.8055,-1.804,-1.8002,-1.7982,-1.7999,-1.7963,-1.7982,-1.7984,-1.7987,-1.7987,-1.8066,-1.7983,-1.7983,-1.7982,-1.7982,0,-1.8311,-1.8315,-1.8261,-1.826,-1.8264,-1.8221,-1.8225,-1.8201,-1.8176,-1.817,-1.8128,-1.8123,-1.8073,-1.8063,-1.8033,-1.8032,-1.8027,-1.8011,-1.8003,-1.8014,-1.8016,-1.8007,-1.8003,-1.7984,-1.7984,-1.7983,-1.7983,0,-1.8382,-1.8346,-1.8342,-1.8301,-1.8291,-1.8295,-1.8259,-1.8257,-1.823,-1.8223,-1.8219,-1.8176,-1.8162,-1.8123,-1.8098,-1.8078,-1.8085,-1.807,-1.8095,-1.809,-1.8111,-1.811,-1.8186,-1.8194,-1.8107,-1.8108,-1.8108,0,-1.8417,-1.8419,-1.8379,-1.8373,-1.8356,-1.8346,-1.8335,-1.8294,-1.8284,-1.8253,-1.8255,-1.8238,-1.8222,-1.8202,-1.8168,-1.815,-1.8134,-1.8162,-1.813,-1.8143,-1.8134,-1.8134,-1.8134,-1.8168,-1.8169,-1.817,-1.8171,0,-1.8483,-1.8466,-1.8452,-1.8434,-1.8423,-1.8405,-1.8386,-1.8383,-1.8337,-1.8328,-1.8314,-1.8302,-1.8278,-1.8262,-1.8239,-1.8219,-1.8188,-1.8182,-1.8185,-1.8196,-1.8211,-1.8203,-1.8113,-1.818,-1.8179,-1.8178,-1.8178,-1.8177,-1.8536,-1.8537,-1.8509,-1.8496,-1.8478,-1.8461,-1.8458,-1.8431,-1.8419,-1.8397,-1.8374,-1.8363,-1.8335,-1.8301,-1.8284,-1.8275,-1.8258,-1.8263,-1.8264,-1.8266,-1.8271,-1.8214,-1.827,-1.827,-1.827,-1.827,-1.8269,0,-1.86,-1.8581,-1.857,-1.8545,-1.8535,-1.8508,-1.8486,-1.8479,-1.847,-1.8448,-1.8434,-1.8419,-1.8404,-1.837,-1.8352,-1.8351,-1.8337,-1.8348,-1.8347,-1.8343,-1.8287,-1.8286,-1.836,-1.836,-1.836,-1.836,-1.836,-1.836,-1.8632,-1.8632,-1.8612,-1.8602,-1.8583,-1.8572,-1.8562,-1.8547,-1.8529,-1.8515,-1.8502,-1.8481,-1.8455,-1.8435,-1.842,-1.841,-1.8405,-1.8422,-1.8408,-1.8356,-1.8347,-1.8339,-1.8337,-1.8421,-1.8421,-1.8464,-1.8465,-1.8465]},{"header":{"parameterUnit":"m.s-1","parameterCategory":1,"la1":30.2991,"la2":30.254,"lo1":-89.0895,"lo2":-89.0444,"dy":0.0017,"dx":0.0017,"nx":28,"ny":28,"refTime":"2024-05-02T21:00:00:Z","depth":0,"parameterNumber":3,"parameterNumberName":"V-component_of_WINDS"},"data":[0,0,0,0,0,0,0,0,0,0,0,0,0,0,0,0,0,0,0,0,0,0,0,0,0,0,0,0,0,0,0,0,0,0,0,0,0,0,0,0,0,0,0,0,0,0,0,0,0,0,0,0,0,0,0,0,0,0,1.9735,1.9735,0,1.9733,1.9733,1.9733,1.9729,1.9729,1.9729,1.9729,1.9724,1.9724,1.9724,0,0,0,0,0,0,0,0,0,0,0,0,0,1.9735,1.9735,1.9735,1.9735,1.9735,1.9733,1.9733,1.9733,1.9729,1.9729,1.9729,1.9729,1.9724,1.9724,1.9724,0,0,0,0,0,0,0,0,0,0,0,0,0,1.9734,1.9735,1.9735,1.9733,1.9733,1.9733,1.9733,1.9733,1.9729,1.9729,1.9729,1.9729,1.9724,1.9724,1.9724,1.9726,0,0,1.9724,1.9724,0,0,0,0,0,0,0,0,1.9734,1.9734,1.9733,1.9733,1.9733,1.9731,1.9731,1.973,1.9729,1.973,1.9729,1.9729,1.9727,1.9726,1.9726,1.9725,1.9725,1.9724,1.9724,1.9724,1.9724,0,0,0,0,0,0,0,1.9734,1.9734,1.9734,1.9733,1.9733,1.9732,1.9732,1.9731,1.9729,1.973,1.973,1.973,1.9726,1.9726,1.9726,1.9725,1.9724,1.9724,1.9724,1.9724,1.9727,1.9727,0,0,0,0,0,0,1.9735,1.9734,1.9734,1.9734,1.9733,1.9732,1.9732,1.9732,1.9729,1.9729,1.973,1.973,1.9726,1.9726,1.9726,1.9728,1.9724,1.9724,1.9724,1.9727,1.9727,1.9727,0,0,0,0,0,0,1.9735,1.9735,1.9735,1.9734,1.9734,1.9732,1.9732,1.9732,1.9732,1.9729,1.9728,1.973,1.9726,1.9726,1.9726,1.9728,1.9724,1.9724,1.9727,1.9727,1.9727,1.9733,0,0,0,0,0,0,1.9735,1.9735,1.9736,1.9734,1.9734,1.9735,1.9732,1.9732,1.9732,1.9731,1.9729,1.9728,1.9726,1.9726,1.9726,1.9728,1.9724,1.9727,1.9727,1.9727,1.9732,1.9733,1.9734,0,0,0,0,0,1.9735,1.9737,1.9736,1.9736,1.9735,1.9735,1.9735,1.9733,1.9732,1.9733,1.9731,1.9728,1.9728,1.9726,1.9726,1.9728,1.9727,1.9727,1.9727,1.9732,1.9733,1.9733,0,0,0,0,0,0,1.9737,1.9736,1.9735,1.9737,1.9736,1.9735,1.9735,1.9734,1.9733,1.9733,1.973,1.973,1.973,1.9729,1.9727,1.973,1.9727,1.9727,1.9731,1.9731,1.9732,1.9732,1.9723,0,0,0,0,0,1.9738,1.9739,1.9738,1.9739,1.9739,1.9737,1.9737,1.9736,1.9735,1.9735,1.9733,1.9732,1.9732,1.9731,1.9731,1.9732,1.9732,1.9733,1.9734,1.9734,1.9735,1.9736,1.9737,1.9728,1.9728,1.9728,0,0,1.9739,1.9739,1.9739,1.9739,1.9739,1.974,1.9737,1.9738,1.9738,1.9735,1.9735,1.9734,1.9733,1.9734,1.9734,1.9733,1.9737,1.9735,1.9735,1.9735,1.9736,1.9737,1.9738,1.9729,1.9729,1.9728,0,0,1.9742,1.9741,1.9743,1.9743,1.9743,1.9742,1.9743,1.9742,1.9741,1.9742,1.974,1.974,1.9739,1.9739,1.9738,1.9743,1.9741,1.9743,1.9746,1.9747,1.9748,1.9749,1.9751,1.9752,1.9743,1.9743,1.9743,0,1.9743,1.9745,1.9744,1.9745,1.9746,1.9744,1.9745,1.9745,1.9744,1.9745,1.9743,1.9743,1.9742,1.9743,1.9745,1.9744,1.9745,1.9743,1.9748,1.9749,1.9749,1.9751,1.9752,1.9743,1.9743,1.9743,1.9743,0,1.9747,1.9748,1.9749,1.975,1.9751,1.9752,1.9751,1.9752,1.9751,1.975,1.9751,1.975,1.975,1.975,1.9748,1.9752,1.9751,1.9749,1.9746,1.975,1.9752,1.9753,1.9744,1.9743,1.9743,1.9743,0,0,1.9749,1.9751,1.9752,1.9753,1.9753,1.9754,1.9755,1.9756,1.9757,1.9757,1.9758,1.9759,1.9757,1.9757,1.9755,1.9757,1.9761,1.9755,1.9754,1.9756,1.9765,1.9767,1.9768,1.976,1.976,1.976,1.9766,0,1.9752,1.9756,1.9756,1.9759,1.9761,1.976,1.9761,1.9761,1.9761,1.9762,1.9761,1.9762,1.976,1.976,1.9761,1.976,1.9763,1.976,1.9761,1.9761,1.9762,1.9769,1.977,1.9775,1.9766,1.9766,1.9766,0,1.9756,1.9758,1.9761,1.9763,1.9764,1.9765,1.9766,1.9767,1.9768,1.9768,1.9768,1.9767,1.9769,1.9766,1.9768,1.9766,1.9767,1.9767,1.9767,1.9767,1.9764,1.9769,1.9777,1.9778,1.9767,1.9767,1.9767,0,1.9759,1.9762,1.9765,1.9765,1.9767,1.9768,1.9769,1.9769,1.977,1.9771,1.9772,1.9773,1.9773,1.9774,1.9773,1.9771,1.9776,1.9773,1.9775,1.9776,1.9776,1.9776,1.9784,1.9776,1.9776,1.9776,1.9776,0,1.9762,1.9764,1.9766,1.9768,1.9771,1.9771,1.9773,1.9774,1.9775,1.9776,1.9775,1.9777,1.9775,1.9777,1.9776,1.9778,1.9778,1.9778,1.9778,1.9778,1.9778,1.9778,1.9778,1.9777,1.9777,1.9776,1.9776,0,1.9765,1.9766,1.9769,1.9771,1.9772,1.9774,1.9776,1.9777,1.9778,1.978,1.978,1.978,1.9782,1.9782,1.9783,1.9783,1.9786,1.9785,1.9786,1.9786,1.9789,1.9789,1.9797,1.9799,1.979,1.979,1.979,0,1.9767,1.9769,1.9772,1.9774,1.9775,1.9777,1.9779,1.9779,1.978,1.9782,1.9784,1.9786,1.9787,1.979,1.979,1.9791,1.9791,1.9794,1.9791,1.9792,1.9791,1.9791,1.9792,1.9794,1.9794,1.9794,1.9795,0,1.9771,1.9772,1.9774,1.9777,1.978,1.9782,1.9784,1.9785,1.9785,1.9787,1.979,1.9791,1.9794,1.9795,1.9797,1.9797,1.9796,1.9796,1.9796,1.9797,1.9797,1.9798,1.9788,1.9795,1.9795,1.9795,1.9795,1.9795,1.9774,1.9776,1.9779,1.9782,1.9784,1.9786,1.9788,1.979,1.9792,1.9795,1.9795,1.9797,1.9799,1.9801,1.9802,1.9804,1.9803,1.9804,1.9804,1.9804,1.9805,1.9797,1.9804,1.9804,1.9804,1.9804,1.9804,0,1.9778,1.978,1.9783,1.9787,1.9789,1.9789,1.9792,1.9794,1.9797,1.9799,1.9801,1.9804,1.9806,1.9807,1.981,1.9811,1.9811,1.9812,1.9812,1.9812,1.9805,1.9805,1.9812,1.9812,1.9812,1.9812,1.9812,1.9812,1.978,1.9784,1.9786,1.9791,1.9793,1.9797,1.9799,1.9801,1.9803,1.9807,1.9809,1.981,1.9812,1.9814,1.9816,1.9817,1.9818,1.9819,1.9819,1.9813,1.9812,1.9811,1.9811,1.9819,1.9819,1.9825,1.9825,1.9825]}]]